TimeCST,TemperatureF,Dew PointF,Humidity,Sea Level PressureIn,VisibilityMPH,Wind Direction,Wind SpeedMPH,Gust SpeedMPH,PrecipitationIn,Events,Conditions,WindDirDegrees,DateUTC
12:12 AM,19.4,10.4,68,30.31,10.0,Calm,Calm,-,N/A,,Clear,0,2013-03-08 06:12:00
12:32 AM,17.6,10.4,73,30.31,10.0,East,3.5,-,N/A,,Clear,100,2013-03-08 06:32:00
12:52 AM,14.0,8.6,79,30.31,10.0,Calm,Calm,-,N/A,,Clear,0,2013-03-08 06:52:00
1:12 AM,14.0,8.6,79,30.31,10.0,Calm,Calm,-,N/A,,Clear,0,2013-03-08 07:12:00
1:32 AM,12.2,6.8,79,30.32,10.0,Calm,Calm,-,N/A,,Clear,0,2013-03-08 07:32:00
1:52 AM,12.2,6.8,79,30.31,10.0,East,3.5,-,N/A,,Clear,100,2013-03-08 07:52:00
2:12 AM,10.4,5.0,79,30.31,10.0,ESE,3.5,-,N/A,,Clear,110,2013-03-08 08:12:00
2:32 AM,8.6,5.0,85,30.31,10.0,East,3.5,-,N/A,,Clear,100,2013-03-08 08:32:00
2:52 AM,10.4,6.8,85,30.31,10.0,Calm,Calm,-,N/A,,Clear,0,2013-03-08 08:52:00
3:12 AM,10.4,5.0,79,30.30,10.0,ESE,3.5,-,N/A,,Clear,120,2013-03-08 09:12:00
3:32 AM,8.6,5.0,85,30.30,10.0,Calm,Calm,-,N/A,,Clear,0,2013-03-08 09:32:00
3:52 AM,10.4,5.0,79,30.30,10.0,ESE,3.5,-,N/A,,Clear,110,2013-03-08 09:52:00
4:12 AM,10.4,6.8,85,30.29,10.0,Calm,Calm,-,N/A,,Clear,0,2013-03-08 10:12:00
4:32 AM,12.2,8.6,85,30.29,10.0,SE,3.5,-,N/A,,Clear,130,2013-03-08 10:32:00
4:52 AM,8.6,5.0,85,30.30,10.0,Calm,Calm,-,N/A,,Clear,0,2013-03-08 10:52:00
5:12 AM,8.6,5.0,85,30.30,10.0,Calm,Calm,-,N/A,,Clear,0,2013-03-08 11:12:00
5:32 AM,8.6,5.0,85,30.30,10.0,Calm,Calm,-,N/A,,Clear,0,2013-03-08 11:32:00
6:12 AM,8.6,5.0,85,30.30,7.0,Calm,Calm,-,N/A,,Clear,0,2013-03-08 12:12:00
6:32 AM,6.8,3.2,85,30.30,10.0,Calm,Calm,-,N/A,,Clear,0,2013-03-08 12:32:00
6:52 AM,8.6,3.2,79,30.30,5.0,Calm,Calm,-,N/A,,Clear,0,2013-03-08 12:52:00
7:12 AM,8.6,3.2,79,30.30,7.0,Calm,Calm,-,N/A,,Clear,0,2013-03-08 13:12:00
7:32 AM,6.8,3.2,85,30.30,10.0,Calm,Calm,-,N/A,,Clear,0,2013-03-08 13:32:00
7:52 AM,12.2,10.4,92,30.29,5.0,Calm,Calm,-,N/A,,Clear,0,2013-03-08 13:52:00
8:12 AM,15.8,14.0,93,30.30,5.0,Calm,Calm,-,N/A,,Clear,0,2013-03-08 14:12:00
8:32 AM,17.6,14.0,86,30.30,7.0,Calm,Calm,-,N/A,,Clear,0,2013-03-08 14:32:00
8:52 AM,21.2,17.6,86,30.29,7.0,Calm,Calm,-,N/A,,Clear,0,2013-03-08 14:52:00
9:12 AM,23.0,19.4,86,30.30,7.0,South,4.6,-,N/A,,Scattered Clouds,180,2013-03-08 15:12:00
9:32 AM,26.6,19.4,74,30.30,7.0,South,3.5,-,N/A,,Scattered Clouds,170,2013-03-08 15:32:00
9:52 AM,26.6,19.4,74,30.30,7.0,South,4.6,-,N/A,,Scattered Clouds,180,2013-03-08 15:52:00
10:12 AM,28.4,19.4,69,30.30,7.0,South,4.6,-,N/A,,Scattered Clouds,180,2013-03-08 16:12:00
10:32 AM,30.2,19.4,64,30.28,7.0,South,3.5,-,N/A,,Scattered Clouds,170,2013-03-08 16:32:00
10:52 AM,32.0,21.2,64,30.28,7.0,SSE,3.5,-,N/A,,Clear,150,2013-03-08 16:52:00
11:12 AM,32.0,21.2,64,30.28,7.0,South,4.6,-,N/A,,Clear,170,2013-03-08 17:12:00
11:32 AM,32.0,21.2,64,30.29,7.0,South,3.5,-,N/A,,Clear,180,2013-03-08 17:32:00
11:52 AM,32.0,21.2,64,30.28,7.0,SSE,5.8,-,N/A,,Clear,160,2013-03-08 17:52:00
12:12 PM,32.0,21.2,64,30.27,7.0,South,5.8,-,N/A,,Clear,180,2013-03-08 18:12:00
12:32 PM,33.8,21.2,60,30.27,7.0,SE,3.5,-,N/A,,Clear,130,2013-03-08 18:32:00
12:52 PM,33.8,21.2,60,30.26,7.0,South,5.8,-,N/A,,Clear,170,2013-03-08 18:52:00
1:12 PM,33.8,23.0,65,30.25,7.0,South,6.9,-,N/A,,Clear,180,2013-03-08 19:12:00
1:32 PM,35.6,23.0,60,30.24,10.0,South,6.9,-,N/A,,Clear,190,2013-03-08 19:32:00
1:52 PM,35.6,23.0,60,30.24,7.0,South,4.6,-,N/A,,Clear,170,2013-03-08 19:52:00
2:12 PM,35.6,23.0,60,30.23,10.0,Calm,Calm,-,N/A,,Clear,0,2013-03-08 20:12:00
2:32 PM,35.6,23.0,60,30.23,7.0,SE,5.8,-,N/A,,Clear,130,2013-03-08 20:32:00
2:52 PM,35.6,23.0,60,30.24,10.0,ESE,4.6,-,N/A,,Clear,120,2013-03-08 20:52:00
3:12 PM,35.6,23.0,60,30.23,7.0,Calm,Calm,-,N/A,,Clear,0,2013-03-08 21:12:00
3:32 PM,35.6,23.0,60,30.23,10.0,Calm,Calm,-,N/A,,Clear,0,2013-03-08 21:32:00
3:52 PM,35.6,23.0,60,30.23,10.0,Calm,Calm,-,N/A,,Clear,0,2013-03-08 21:52:00
4:12 PM,35.6,23.0,60,30.23,10.0,South,3.5,-,N/A,,Clear,170,2013-03-08 22:12:00
4:32 PM,35.6,24.8,65,30.23,10.0,South,4.6,-,N/A,,Clear,180,2013-03-08 22:32:00
4:52 PM,33.8,24.8,70,30.23,10.0,ESE,4.6,-,N/A,,Clear,120,2013-03-08 22:52:00
5:12 PM,33.8,24.8,70,30.22,10.0,East,4.6,-,N/A,,Clear,100,2013-03-08 23:12:00
5:32 PM,33.8,24.8,70,30.22,10.0,East,3.5,-,N/A,,Clear,90,2013-03-08 23:32:00
5:52 PM,32.0,23.0,69,30.21,10.0,ESE,5.8,-,N/A,,Clear,110,2013-03-08 23:52:00
6:12 PM,32.0,23.0,69,30.20,10.0,ESE,3.5,-,N/A,,Clear,120,2013-03-09 00:12:00
6:32 PM,32.0,23.0,69,30.20,10.0,SE,3.5,-,N/A,,Clear,130,2013-03-09 00:32:00
6:52 PM,32.0,24.8,75,30.20,10.0,Calm,Calm,-,N/A,,Clear,0,2013-03-09 00:52:00
7:12 PM,32.0,24.8,75,30.19,10.0,Calm,Calm,-,N/A,,Clear,0,2013-03-09 01:12:00
7:32 PM,30.2,23.0,75,30.18,7.0,East,3.5,-,N/A,,Clear,100,2013-03-09 01:32:00
7:52 PM,28.4,23.0,80,30.18,7.0,Calm,Calm,-,N/A,,Clear,0,2013-03-09 01:52:00
8:12 PM,28.4,23.0,80,30.17,7.0,East,3.5,-,N/A,,Clear,80,2013-03-09 02:12:00
8:32 PM,26.6,21.2,80,30.17,7.0,Calm,Calm,-,N/A,,Clear,0,2013-03-09 02:32:00
8:52 PM,26.6,23.0,86,30.16,7.0,East,3.5,-,N/A,,Clear,90,2013-03-09 02:52:00
9:12 PM,26.6,23.0,86,30.16,7.0,Calm,Calm,-,N/A,,Clear,0,2013-03-09 03:12:00
9:32 PM,26.6,23.0,86,30.15,7.0,East,3.5,-,N/A,,Clear,90,2013-03-09 03:32:00
9:52 PM,26.6,23.0,86,30.15,7.0,East,3.5,-,N/A,,Clear,100,2013-03-09 03:52:00
10:12 PM,26.6,23.0,86,30.14,7.0,East,3.5,-,N/A,,Clear,90,2013-03-09 04:12:00
10:32 PM,24.8,21.2,86,30.13,7.0,East,3.5,-,N/A,,Clear,100,2013-03-09 04:32:00
10:52 PM,24.8,21.2,86,30.13,7.0,East,3.5,-,N/A,,Clear,90,2013-03-09 04:52:00
11:12 PM,24.8,21.2,86,30.12,7.0,Calm,Calm,-,N/A,,Clear,0,2013-03-09 05:12:00
11:32 PM,24.8,21.2,86,30.10,7.0,East,3.5,-,N/A,,Clear,80,2013-03-09 05:32:00
11:52 PM,26.6,21.2,80,30.10,7.0,Calm,Calm,-,N/A,,Scattered Clouds,0,2013-03-09 05:52:00